Погода в Джалинде

Россия / Амурская область     53°29′17″N   123°53′45″E
темп.,
°C
ветер,
м/с
пор.,
м/с
влажн.,
%
обл.,
%
осадки,
мм/ч
давл.,
гПа
погр.,
м
26 июля, пн
пн2600:00+15зюз11971 0.1 100311
03:00+14зсз119942 0.1 100311
06:00+15зсз119785 0.0 100485
09:00+19сз117973 0.0 1004562
12:00+23зсз11664 0.6 1004917
15:00+22с23776 2.3 1003865
18:00+22всв13813 1.4 1004308
21:00+17св22925 2.3 100515
27 июля, вт
вт2700:00+16ссв119558 0.0 100612
03:00+15ссв119622 0.1 100611
06:00+15с119753 0.5 100616
09:00+20ссз018415 1.7 1006431
12:00+23св12775 1.2 1005879
15:00+23в34806 3.3 1004969
18:00+21в3587100 2.4 1004442
21:00+18всв2296100 3.0 100433
28 июля, ср
ср2800:00+17всв229899 2.6 100442
03:00+16св1197100 2.7 100415
06:00+16св1197100 0.0 100417
09:00+20сз118454 0.0 1004379
12:00+23ссз1271100 0.8 1002994
15:00+23с11825 3.3 1001627
18:00+22с018684 3.9 1001182
21:00+18св11938 4.9 100111
29 июля, чт
чт2900:00+16св119567 0.0 100111
03:00+15сз119726 0.0 100111
06:00+15з119811 0.0 100118
09:00+20зсз238439 0.0 1001488
12:00+26сз22515 0.0 9991436
15:00+28ссв234394 0.0 9972312
18:00+22сз2370100 0.1 997134
21:00+18с2284100 0.5 99932
30 июля, пт
пт3000:00+17ссз2290100 0.3 99919
03:00+14сз229440 0.3 99921
06:00+12сз22931 0.0 100062
09:00+20ссз37506 0.0 1001683
12:00+24ссз45300 0.0 10011991
15:00+25ссз46294 0.0 10002415
18:00+24с46385 0.0 10012440
21:00+15ссз22623 0.0 100334